STARLINK-36937, 68113

Orbit data source: Space-Track

STARLINK-36937, 68113 is a payload satellite owned by SpaceX/Seattle (US) in SSO that was launched on Sun, 08 Mar 2026 UTC via an FALCON 9 launch vehicle from the Air Force Western Test Range (AFWTR). Payload-class satellites include a variety of spacecraft equipped with specific instruments for various scientific and technological missions. These include communications satellites like Starlink; space stations such as the ISS; scientific satellites like the Hubble; Earth observation satellites from companies like Planet Labs, Umbra, and HawkEye 360; GPS; miniature CubeSats for education and research; and military/defense satellites.

Loading next visibility...
Identifier
68113, 2026-044N
Orbit
SSO
Country
Flag of USUS
Related business
Manufacturer
SpaceX/Seattle
Mission
Operational spacecraft
Bus & Motor
STARLINK V2MO, Unknown motor
Mass
575 kg wet, ~530 kg dry
Launch date (UTC)
2026-03-08 (2 months ago)
Launch vehicle
FALCON 9
Launch site
Air Force Western Test Range (AFWTR)
Object type
Payload
Rocket body
Debris
Shape & HBR
Unknown shape, 17.7 m
Radar Cross Section
RCS unknown

Expand to show TLE details & history
Last TLE update: 10 hours ago

TLE from 10 hours ago
0 STARLINK-36937
1 68113U 26044N   26119.45333827  .00023070  00000-0  71464-3 0  9996
2 68113  97.2854  80.4566 0001733  89.2550 270.8891 15.33448551  9360
Epoch: 2026-04-29T10:52Z
TLE epoch observation values (Epoch: 2026-04-29T10:52:48.426Z)
Latitude
-0.00006°
Longitude
59.84075°
Altitude
468.626 km
Speed
7.632 km/s
True Right ascension
05h 21m 49s
True Declination
0° 00' 00"
Sunlit
Object was in daylight at epoch
Visualization orbit readout
Latitude
Unknown
Longitude
Unknown
Altitude
Unknown
Speed
Unknown
Apparent Right ascension
Unknown
Apparent Declination
Unknown
Sunlit
N/A
Visualization observer readout
Local Sidereal Time
04:40:42
Azimuth
Unknown
Elevation
Unknown
Doppler factor
Unknown
Orbital elements
Apogee altitude
463.661 km
Perigee altitude
461.29 km
Semi-major axis
6,840.612 km
Eccentricity
0.00017
Inclination
97.2854°
RAAN
80.4566°
Arg. of periapsis
89.255°
True anomaly
270.86924°
Mean anomaly
270.8891°
Eccentric anomaly
270.87917°
Mean motion
3.8362 °/min
Orbital period
93.84 mins
BSTAR
0.00071464
Loading maneuver chart data...
Computing Atmospheric mass density...
Loading historical data...
Loading historical data...
Loading historical data...
Loading historical data...
Loading historical data...
Loading historical data...
Loading historical data...

Documentation

Showing up to 5 results
|